Rockwood, MI

2:13 PM EST on February 25, 2017 (GMT -0500)
Grosse Ile Municipal

Weather History for KONZ - November, 2013

Change the Weather History Date:

Saturday, November 9, 2013

  Actual Average (KDTW) Record (KDTW)
Temperature  
Mean Temperature 50 °F -  
Max Temperature 57 °F 51 °F 75 °F (1999)
Min Temperature 42 °F 36 °F 18 °F (1991)
Degree Days  
Heating Degree Days 16    
Moisture  
Dew Point 36 °F    
Average Humidity 59    
Maximum Humidity 76    
Minimum Humidity 47    
Precipitation  
Precipitation 0.00 in - - ()
Sea Level Pressure  
Sea Level Pressure 29.94 in    
Wind  
Wind Speed 16 mph (SW)    
Max Wind Speed 24 mph    
Max Gust Speed 32 mph    
Visibility 10 miles    
Events      
Averages and records for this station are not official NWS values.
T = Trace of Precipitation, MM = Missing Value Source: NWS Daily Summary

Daily Weather History Graph

Daily Weather History Graph

Search for Another Location

Airport or City:

Trip Planner

Search our weather history database for the weather conditions in past years. The results will help you decide how hot, cold, wet, or windy it might be!

Date:

Astronomy

Nov. 09, 2013 Rise Set
Actual Time 7:15 AM EST 5:16 PM EST
Civil Twilight 6:45 AM EST 5:46 PM EST
Nautical Twilight 6:12 AM EST 6:19 PM EST
Astronomical Twilight 5:39 AM EST 6:52 PM EST
Moon 12:50 PM EST (11/9) 11:47 PM EST (11/9)
Length of Visible Light 11h 00m
Length of Day
10h 01m
Waxing Crescent, 44% of the Moon is Illuminated
Nov 9
Waxing Crescent
Nov 10
First Quarter
Nov 17
Full
Nov 25
Last Quarter
Dec 2
New

Hourly Weather History & Observations

Time (EST) Temp. Windchill Dew Point Humidity Pressure Visibility Wind Dir Wind Speed Gust Speed Precip Events Conditions
12:15 AM 42.8 °F 35.4 °F 33.8 °F 70% 30.17 in 10.0 mi South 15.0 mph - N/A   Scattered Clouds
12:34 AM 42.8 °F 35.8 °F 35.6 °F 76% 30.18 in 10.0 mi South 13.8 mph - N/A   Scattered Clouds
12:54 AM 42.8 °F 36.2 °F 35.6 °F 76% 30.17 in 10.0 mi South 12.7 mph - N/A   Clear
1:14 AM 42.8 °F 35.4 °F 35.6 °F 76% 30.17 in 10.0 mi South 15.0 mph - N/A   Clear
1:34 AM 42.8 °F 36.2 °F 33.8 °F 70% 30.15 in 10.0 mi South 12.7 mph - N/A   Scattered Clouds
1:54 AM 42.8 °F 35.4 °F 35.6 °F 76% 30.15 in 10.0 mi South 15.0 mph - N/A   Clear
2:14 AM 42.8 °F 36.2 °F 35.6 °F 76% 30.14 in 10.0 mi South 12.7 mph - N/A   Clear
2:34 AM 42.8 °F 35.4 °F 35.6 °F 76% 30.13 in 10.0 mi South 15.0 mph - N/A   Clear
2:54 AM 44.6 °F 37.2 °F 35.6 °F 71% 30.12 in 10.0 mi South 17.3 mph - N/A   Clear
3:14 AM 42.8 °F 35.1 °F 35.6 °F 76% 30.12 in 10.0 mi South 16.1 mph - N/A   Clear
3:34 AM 44.6 °F 37.4 °F 35.6 °F 71% 30.11 in 10.0 mi South 16.1 mph - N/A   Clear
3:54 AM 44.6 °F 36.9 °F 35.6 °F 71% 30.09 in 10.0 mi South 18.4 mph - N/A   Clear
4:14 AM 44.6 °F 37.2 °F 35.6 °F 71% 30.08 in 10.0 mi South 17.3 mph - N/A   Clear
4:34 AM 44.6 °F 36.6 °F 33.8 °F 66% 30.07 in 10.0 mi South 19.6 mph 24.2 mph N/A   Clear
4:54 AM 44.6 °F 36.6 °F 35.6 °F 71% 30.06 in 10.0 mi South 19.6 mph - N/A   Clear
5:14 AM 44.6 °F 36.9 °F 33.8 °F 66% 30.05 in 10.0 mi South 18.4 mph 24.2 mph N/A   Clear
5:34 AM 44.6 °F 35.9 °F 33.8 °F 66% 30.05 in 10.0 mi South 23.0 mph 26.5 mph N/A   Scattered Clouds
5:54 AM 44.6 °F 36.6 °F 33.8 °F 66% 30.03 in 10.0 mi South 19.6 mph 26.5 mph N/A   Mostly Cloudy
6:14 AM 44.6 °F 35.9 °F 33.8 °F 66% 30.03 in 10.0 mi South 23.0 mph - N/A   Scattered Clouds
6:34 AM 44.6 °F 36.1 °F 33.8 °F 66% 30.01 in 10.0 mi South 21.9 mph 28.8 mph N/A   Scattered Clouds
6:54 AM 44.6 °F 35.7 °F 33.8 °F 66% 30.00 in 10.0 mi South 24.2 mph 31.1 mph N/A   Clear
7:14 AM 44.6 °F 35.7 °F 33.8 °F 66% 29.99 in 10.0 mi SSW 24.2 mph 32.2 mph N/A   Clear
7:34 AM 44.6 °F 37.2 °F 33.8 °F 66% 29.99 in 10.0 mi SSW 17.3 mph 26.5 mph N/A   Clear
7:54 AM 44.6 °F 36.9 °F 33.8 °F 66% 29.99 in 10.0 mi SSW 18.4 mph 26.5 mph N/A   Clear
8:14 AM 44.6 °F 35.9 °F 33.8 °F 66% 29.98 in 10.0 mi SSW 23.0 mph 29.9 mph N/A   Clear
8:34 AM 44.6 °F 36.1 °F 33.8 °F 66% 29.97 in 10.0 mi SSW 21.9 mph 27.6 mph N/A   Clear
8:54 AM 44.6 °F 36.9 °F 33.8 °F 66% 29.96 in 10.0 mi SSW 18.4 mph 27.6 mph N/A   Clear
9:14 AM 46.4 °F 39.2 °F 35.6 °F 66% 29.95 in 10.0 mi SSW 18.4 mph 25.3 mph N/A   Clear
9:34 AM 46.4 °F 39.0 °F 33.8 °F 62% 29.93 in 10.0 mi South 19.6 mph 25.3 mph N/A   Mostly Cloudy
9:54 AM 48.2 °F - 33.8 °F 58% 29.92 in 10.0 mi SSW 17.3 mph 26.5 mph N/A   Scattered Clouds
10:14 AM 50.0 °F - 32.0 °F 50% 29.91 in 10.0 mi SSW 18.4 mph 26.5 mph N/A   Clear
10:34 AM 51.8 °F - 32.0 °F 47% 29.89 in 10.0 mi SSW 18.4 mph 24.2 mph N/A   Clear
10:54 AM 51.8 °F - 33.8 °F 50% 29.88 in 10.0 mi SSW 16.1 mph 21.9 mph N/A   Clear
11:14 AM 53.6 °F - 33.8 °F 47% 29.87 in 10.0 mi SW 17.3 mph 26.5 mph N/A   Clear
11:34 AM 53.6 °F - 33.8 °F 47% 29.86 in 10.0 mi SW 17.3 mph 31.1 mph N/A   Clear
11:54 AM 53.6 °F - 35.6 °F 51% 29.85 in 10.0 mi SW 15.0 mph 29.9 mph N/A   Clear
12:14 PM 53.6 °F - 35.6 °F 51% 29.83 in 10.0 mi SW 20.7 mph 31.1 mph N/A   Clear
12:34 PM 55.4 °F - 35.6 °F 47% 29.83 in 10.0 mi SW 21.9 mph 31.1 mph N/A   Clear
12:54 PM 55.4 °F - 35.6 °F 47% 29.82 in 10.0 mi WSW 13.8 mph 26.5 mph N/A   Clear
1:14 PM 55.4 °F - 35.6 °F 47% 29.81 in 10.0 mi SW 20.7 mph 32.2 mph N/A   Clear
1:34 PM 55.4 °F - 37.4 °F 51% 29.81 in 10.0 mi SW 13.8 mph 31.1 mph N/A   Scattered Clouds
1:54 PM 55.4 °F - 37.4 °F 51% 29.81 in 10.0 mi SW 17.3 mph 29.9 mph N/A   Overcast
2:14 PM 57.2 °F - 37.4 °F 48% 29.81 in 10.0 mi SW 17.3 mph 24.2 mph N/A   Overcast
2:34 PM 57.2 °F - 39.2 °F 51% 29.80 in 10.0 mi WSW 15.0 mph 24.2 mph N/A   Overcast
2:54 PM 55.4 °F - 39.2 °F 54% 29.80 in 10.0 mi WSW 16.1 mph 26.5 mph N/A   Overcast
3:14 PM 57.2 °F - 39.2 °F 51% 29.80 in 10.0 mi WSW 13.8 mph 27.6 mph N/A   Overcast
3:34 PM 57.2 °F - 39.2 °F 51% 29.81 in 10.0 mi WSW 17.3 mph 27.6 mph N/A   Overcast
3:54 PM 57.2 °F - 39.2 °F 51% 29.81 in 10.0 mi WSW 11.5 mph 25.3 mph N/A   Overcast
4:14 PM 57.2 °F - 39.2 °F 51% 29.81 in 10.0 mi SW 11.5 mph 23.0 mph N/A   Mostly Cloudy
4:34 PM 57.2 °F - 39.2 °F 51% 29.82 in 10.0 mi WSW 13.8 mph 23.0 mph N/A   Scattered Clouds
4:54 PM 57.2 °F - 39.2 °F 51% 29.82 in 10.0 mi WSW 15.0 mph 27.6 mph N/A   Mostly Cloudy
5:14 PM 57.2 °F - 39.2 °F 51% 29.84 in 10.0 mi WSW 12.7 mph 20.7 mph N/A   Overcast
5:34 PM 57.2 °F - 39.2 °F 51% 29.85 in 10.0 mi West 12.7 mph 23.0 mph N/A   Overcast
5:54 PM 55.4 °F - 39.2 °F 54% 29.86 in 10.0 mi West 13.8 mph 17.3 mph N/A   Overcast
6:14 PM 55.4 °F - 37.4 °F 51% 29.86 in 10.0 mi West 11.5 mph 24.2 mph N/A   Overcast
6:34 PM 55.4 °F - 37.4 °F 51% 29.87 in 10.0 mi West 12.7 mph 16.1 mph N/A   Overcast
6:54 PM 55.4 °F - 37.4 °F 51% 29.87 in 10.0 mi WSW 8.1 mph - N/A   Overcast
7:14 PM 55.4 °F - 37.4 °F 51% 29.87 in 10.0 mi West 9.2 mph - N/A   Overcast
7:34 PM 55.4 °F - 37.4 °F 51% 29.87 in 10.0 mi WSW 11.5 mph 18.4 mph N/A   Overcast
7:54 PM 55.4 °F - 37.4 °F 51% 29.87 in 10.0 mi WSW 10.4 mph - N/A   Overcast
8:14 PM 55.4 °F - 37.4 °F 51% 29.87 in 10.0 mi West 9.2 mph - N/A   Overcast
8:34 PM 55.4 °F - 37.4 °F 51% 29.87 in 10.0 mi WSW 10.4 mph 19.6 mph N/A   Overcast
8:54 PM 53.6 °F - 37.4 °F 54% 29.87 in 10.0 mi WSW 15.0 mph 21.9 mph N/A   Mostly Cloudy
9:14 PM 53.6 °F - 37.4 °F 54% 29.87 in 10.0 mi West 13.8 mph 20.7 mph N/A   Mostly Cloudy
9:34 PM 53.6 °F - 37.4 °F 54% 29.87 in 10.0 mi WSW 8.1 mph - N/A   Mostly Cloudy
9:54 PM 53.6 °F - 39.2 °F 58% 29.88 in 10.0 mi West 11.5 mph - N/A   Scattered Clouds
10:14 PM 53.6 °F - 37.4 °F 54% 29.89 in 10.0 mi West 12.7 mph 25.3 mph N/A   Scattered Clouds
10:34 PM 51.8 °F - 37.4 °F 58% 29.89 in 10.0 mi West 9.2 mph - N/A   Scattered Clouds
10:54 PM 51.8 °F - 37.4 °F 58% 29.89 in 10.0 mi West 10.4 mph - N/A   Clear
11:14 PM 50.0 °F - 37.4 °F 62% 29.88 in 10.0 mi West 9.2 mph 18.4 mph N/A   Clear
11:34 PM 50.0 °F - 35.6 °F 58% 29.88 in 10.0 mi West 8.1 mph - N/A   Clear
11:54 PM 48.2 °F - 35.6 °F 62% 29.89 in 10.0 mi WSW 8.1 mph - N/A   Clear